Regional Weather Roundup
Issued by NWS Wakefield, VA

Home | Current Version | Previous Version | Text Only | Print | Product List | Glossary Off
Versions: 1 2 3 4 5 6 7 8 9 10 11 12 13 14 15 16 17 18 19 20 21 22 23 24 25 26 27 28 29 30 31 32 33 34 35 36 37 38 39 40 41 42 43 44 45 46 47 48 49 50

000
ASUS41 KAKQ 022315
RWRAKQ

REGIONAL WEATHER ROUNDUP
NATIONAL WEATHER SERVICE WAKEFIELD VA
700 PM EDT SAT MAY 02 2015

Note: "fair" indicates few or no clouds below 12,000 feet with no
significant weather and/or obstructions to visibility. * = Denotes
station may not report precipitation (e.g., rain,snow,etc.),
thunder or fog.

VAZ042-051-052>054-056-030000-
NORTHERN VIRGINIA

CITY           SKY/WX    TMP DP  RH WIND       PRES   REMARKS
WASH NATIONAL  MOSUNNY   74  42  31 NW8       29.98S
DULLES         MOSUNNY   71  41  33 W5        29.98S
FORT BELVOIR   MOSUNNY   73  41  31 W6        29.98S
QUANTICO       MOSUNNY   71  41  33 NW5       29.99S
FREDERICKSBRG* PTSUNNY   74  43  33 NW3       29.99R
STAFFORD*      CLOUDY    72  37  28 NW7       30.03R
WARRENTON      SUNNY     72  45  38 NW3       29.99S
CULPEPER*      NOT AVBL
MANASSAS*      NOT AVBL
LEESBURG*      SUNNY     72  45  37 CALM      29.99S
WINCHESTER     MOSUNNY   70  34  26 CALM      29.99S
FRONT ROYAL*   FAIR      70  37  30 CALM      29.98F
LURAY*         FAIR      70  45  40 S3        30.00S
$$

VAZ048-049-060>072-079>083-030000-
CENTRAL AND SOUTH CENTRAL VIRGINIA

CITY           SKY/WX    TMP DP  RH WIND       PRES   REMARKS
RICHMOND       MOSUNNY   71  43  36 N7        30.01R
CHESTERFIELD*  MOCLDY    70  41  35 CALM      30.02S
PETERSBURG*    MOSUNNY   70  52  52 CALM      30.02S
HANOVER        SUNNY     70  52  52 CALM      30.02R
TAPPAHANNOCK*  SUNNY     71  39  31 CALM      30.00S
QUINTON*       FAIR      71  44  38 CALM      30.00S
CHARLOTTSVILLE MOSUNNY   71  39  31 CALM      30.01S
GORDONSVILLE*  FAIR      70  44  39 CALM      30.01R
ORANGE*        MOSUNNY   72  41  33 CALM      30.02S
LOUISA*        MOSUNNY   70  45  40 CALM      30.00S
BUMPASS*       FAIR      70  42  35 CALM      30.00S
FARMVILLE*     MOSUNNY   71  43  36 CALM      30.01S
CREWE*         MOCLDY    67  49  52 CALM      30.02R
FORT PICKETT*  FAIR      68  47  47 W5        30.02S
CHASE CITY*    FAIR      72  48  42 CALM      30.03S
CLARKSVILLE*   FAIR      68  46  45 CALM      30.02S
SOUTH HILL*    PTSUNNY   65  53  65 CALM      30.08S
LAWRENCEVILLE* CLOUDY    67  53  61 CALM      30.02S
EMPORIA*       SUNNY     63  50  63 CALM      30.04R
$$

VAZ088>098-030000-
SOUTHEAST VIRGINIA

CITY           SKY/WX    TMP DP  RH WIND       PRES   REMARKS
NORFOLK        CLEAR     65  44  46 CALM      30.02R
VIRGINIA BEACH PTCLDY    57  47  69 SE6       30.02S
NORFOLK NAVAL  PTCLDY    67  43  41 NE5       30.04R
WEST POINT*    SUNNY     72  40  32 E7        30.02R
SALUDA*        FAIR      65  47  52 SE3       30.00S
NEWPORT NEWS   CLEAR     67  48  50 E6        30.02R
LANGLEY AFB    CLEAR     63  47  57 SE3       30.01S
FORT EUSTIS    CLEAR     65  53  65 S6        30.00R
WILLIAMSBURG*  SUNNY     70  55  60 S8        30.02R
HR EXEC AP*    FAIR      66  46  48 CALM      30.04R
FRANKLIN*      SUNNY     68  47  48 NE6       30.02R
WAKEFIELD      SUNNY     70  45  40 CALM      30.01S
$$

VAZ020-022-025-037-045-030000-
WEST CENTRAL AND SOUTHWEST VIRGINIA

CITY           SKY/WX    TMP DP  RH WIND       PRES   REMARKS
STAUNTON*      MOSUNNY   67  39  36 S3        30.04F
WAYNESBORO*    MOCLDY    66  39  37 CALM      30.03F
HOT SPRINGS VA CLOUDY    59  31  34 N8        30.09R
LYNCHBURG      PTSUNNY   69  40  34 SW3       30.05R
DANVILLE       PTSUNNY   71  43  36 N6        30.04R
SOUTH BOSTON*  MOCLDY    68  46  45 CALM      30.03S
MARTINSVILLE   PTSUNNY   64  47  54 CALM      30.07S
ROANOKE        PTSUNNY   68  39  34 E3        30.06S
BLACKSBURG     CLOUDY    64  38  38 NW7       30.10R
DUBLIN*        MOSUNNY   67  35  30 N7        30.09R
MARION*        PTSUNNY   66  34  29 N5        30.12R
HILLSVILLE*    MOSUNNY   63  38  40 N3        30.09R
RICHLANDS*     FAIR      63  26  25 NW5       30.10S
WISE*          SUNNY     64  28  25 N6        30.12R
ABINGDON*      SUNNY     69  31  24 CALM      30.09R
$$

MDZ021>025-VAZ099-100-030000-
SOUTHERN MARYLAND AND THE DELMARVA PENINSULA

CITY           SKY/WX    TMP DP  RH WIND       PRES   REMARKS
PATUXENT RIVER SUNNY     68  48  48 CALM      29.99S
BAY BRIDGE APT   N/A    N/A N/A N/A S5        29.97S
LEONARDTOWN    SUNNY     68  43  40 S3        30.00S
DOVER          PTCLDY    57  53  86 E12       29.94S
GEORGETOWN     CLOUDY    62  48  60 SE9       29.99R
EASTON         PTCLDY    72  46  40 CALM      30.01R
CAMBRIDGE      CLEAR     72  45  37 CALM      29.97S
SALISBURY      CLEAR     63  46  54 SE8       29.99R
OCEAN CITY     CLEAR     52  45  77 S3        30.02R
WALLOPS ISLAND CLEAR     55  47  74 S8        30.02R
ACCOMACK*      CLEAR     59  50  72 S7        30.01R
$$

NCZ012>017-030>032-030000-
NORTH CENTRAL AND EASTERN NORTH CAROLINA

CITY           SKY/WX    TMP DP  RH WIND       PRES   REMARKS
ROANOKE RAPIDS FAIR      66  50  55 NW3       30.03R
RALEIGH        PTSUNNY   68  50  52 CALM      30.04S
ELIZABETH CITY CLEAR     62  49  62 E7        30.03R
AHOSKIE*       CLOUDY    68  48  49 N3        30.03R
EDENTON*       CLEAR     63  52  67 SE6       30.03R
CURRITUCK*     CLEAR     58  46  63 E3        30.04S
KILL DEVIL HLS CLEAR     54  45  72 E3        30.03S
MANTEO         CLEAR     55  46  70 NE9       30.04S
CAPE HATTERAS  CLEAR     55  44  66 NE9G17    30.03S
TARBORO*       FAIR      69  47  46 NW3       30.03S
GOLDSBORO      MOSUNNY   70  53  54 N3        30.01S
WASHINGTON       N/A     68  49  51 N6        30.03R
GREENVILLE     MOSUNNY   68  48  49 N3        30.04R
NEW BERN       CLOUDY    69  47  45 NE7       30.03R
WILMINGTON     CLOUDY    70  53  54 CALM      30.02R
$$

VAZ048-030000-
ELSEWHERE

CITY           SKY/WX    TMP DP  RH WIND       PRES   REMARKS
HARRISBURG PA  MOSUNNY   71  38  29 W5        29.93S
BALTIMORE      MOSUNNY   72  40  31 NW7       29.95S
ANNAPOLIS      SUNNY     67  45  45 S6        29.97R
ANDREWS AFB    MOSUNNY   70  45  41 SE3       29.97S
PHILADELPHIA   PTCLDY    69  46  43 S12       29.95R
HENDERSON NC   MOSUNNY   67  46  47 CALM      30.03S
GREENSBORO     PTSUNNY   70  38  31 N6        30.04R
ROCKY MOUNT    PTSUNNY   69  50  50 NW3       30.03S
$$

VAZ100-030000-
MARINE

STATION/POSITION TIME  TEMP    WIND        PRES    WAVE   SWELL
                       AIR SEA DIR/SP/G            HT/PER HT/PER
                 (UTC) (F)     (DEG/KT/KT) (MB)    (FT/S) (FT/S)
BRANDYWINE LGT   2212   50 54  150/ 15/ 16 1015.4R
CAPE MAY NJ      2200   53 60  110/ 10/ 12 1015.1R
LEWES DE         2200   53 56  150/ 11/ 16 1015.1S
15NM E FENWICK I 2250   50 49              1015.3F   6/ 8
OCEAN-CITY-INLET 2200   52 56  200/  5/  7 1015.9R
WACHAPREAGUE VA  2200   56 61  190/  6/  6 1016.4S
THOMAS POINT MD  2300   62 60  200/ 10/ 10 1015.6S
GOOSES REEF MD   2300   64 62                N/A     0
COVE POINT MD    2200   67      50/  1/  2 1015.8F
SOLOMONS ISLAND  2200      62                N/A
BISHOPS HEAD MD  2200   61 63  230/  8/  9 1015.0R
PINEY POINT MD   2206          190/  6/  6   N/A
CAMBRIDGE MD     2200   70 60  100/  3/  3 1014.7F
LEWISETTA VA     2200   65 61              1015.5R
RAPPAHANNOCK LGT 2200          130/  4/  4 1016.6S
YORK RVR RNG VA  2200   59     140/  7/  8 1015.8R
YORKTOWN VA      2200   62 60  100/  5/  7 1016.1R
JAMESTOWN VA     2300   65 63  140/ 10/ 12 1015.4R
DOMINION TERM VA 2200   62      10/  3/  7 1016.5R
KIPTOPEKE VA     2200      64  130/  7/ 11   N/A
CHES BAY BRIDGE  2200   56 58   80/  8/ 10 1016.2R
CAPE HENRY VA    2200   55     110/  8/ 10 1015.4R
CHESAPEAKE LGHT  2200   51     100/  7/  7 1017.5R
WILLOUBY STN VA  2200   60      90/  2/  3 1017.2R
S CRANEY ISL VA  2200           50/  4/  4 1016.5R
CAPE HENRY BUOY  2228      53                N/A     5/11   2/11
1ST LANDING BUOY 2300      58              1016.5S   3/ 5
CAPE CHARLES BUO 2226      55                N/A     6/10   5/10
OFFSHORE WE BUOY 2211      51                N/A     7/11   7/11
64NM E OF VA BCH 2250   56 63  330/ 12/ 16 1016.0R  10/11  10/11
DUCK PIER NC     2200   53 56   50/  8/  9 1015.9R
44056 DUCK FRF   2211      54                N/A     6/11   3/11
OREGON INLET NC  2200   53 57   30/ 11/ 13 1016.8R
HATTERAS NC      2200   59 61   20/ 12/ 16 1016.4R
DIAMOND SHLS NC  2250   56 66   20/ 17/ 19 1016.7R   6/13   5/13
CAPE LOOKOUT NC  2300   62      60/ 15/ 18 1016.5R
$$


USA.gov is the U.S. government's official web portal to all federal, state and local government web resources and services.